INTELSAT 906 (IS-906)

Last updated on Tue Oct 08 2024 00:02:37 GMT+0000 (Coordinated Universal Time)

1 27513U 02041A 24281.12663226 .00000026 00000+0 00000+0 0 9996 2 27513 4.2206 80.4984 0004317 149.9085 255.6039 1.00272564 80834
UTC large
Height (km)
Speed (km/s)
/
Latitude / Longitude
Inclination (degrees)
Orbital Period (minutes)
Azimuth
Elevation
Range (km)
Doppler Factor

Next 0 passes for location: London (51.5072 / 0.1276)

Sorry there are no passes over London.